SCP
-0 -0 0 0 0 0 0 0 -0 0 -0 -0 -0 0 0 0 0 1 1 1 2 1 1 0 0 0 0 0 0 0 0 0 0 0 0 0 0 0 0 0 0 0 0
0 0 -0 0 0 0 0 0 0 0 0 -0 0 0 0 1 1 1 1 2 2 1 1 1 1 0 0 0 0 0 0 0 0 0 0 0 0 0 0 0 0 0 0
0 0 0 0 0 0 0 0 0 0 -0 -0 0 0 1 1 1 1 2 1 2 1 1 1 0 0 0 0 0 0 0 0 0 0 0 0 0 0 0 0 0 0 0
0 -0 -0 -0 0 0 0 0 0 0 -0 0 0 0 1 1 1 2 2 1 1 1 1 1 0 0 0 0 0 0 0 0 0 0 0 0 0 0 0 0 0 0 0
0 0 0 0 0 0 0 0 0 -0 -0 0 0 0 1 1 2 2 1 1 1 1 0 0 0 0 0 0 0 0 0 0 0 0 0 0 0 0 0 0 0 0 0
0 0 0 0 0 0 0 0 0 -0 -0 0 0 0 1 1 1 1 1 1 0 0 0 0 0 0 0 0 0 0 0 0 0 0 0 0 0 0 0 0 0 0 0
0 0 0 0 0 -0 0 -0 -0 -0 -0 -0 0 0 1 2 0 0 0 1 0 0 0 0 0 0 0 0 0 0 0 0 0 0 0 0 0 0 0 0 0 0 0
0 0 0 0 -0 -0 -0 -0 -0 -0 -0 -0 0 0 1 1 0 0 0 0 0 0 0 0 0 0 0 0 0 0 0 0 0 0 0 0 0 0 0 0 0 0 0
0 0 0 0 -0 -0 -0 -0 -0 -0 -0 -0 0 0 1 0 0 0 0 0 0 0 0 0 0 0 0 0 0 0 0 0 0 0 0 0 0 0 0 0 0 0 0
0 0 0 0 -0 -0 -0 -0 -0 -0 -0 -0 -0 0 0 0 0 0 0 0 0 0 0 0 0 0 0 0 0 0 0 0 0 0 0 0 0 0 0 0 0 0 0
0 0 0 0 -0 -0 -0 0 -0 -0 -0 -0 -1 -0 0 -0 0 0 0 0 0 0 0 0 0 0 0 0 0 0 0 0 0 0 0 0 0 0 0 0 0 0 0
-0 0 0 0 -0 0 0 1 -0 -0 -0 -1 -1 0 0 -0 0 0 0 0 0 0 0 0 0 0 0 0 0 0 0 0 0 0 0 0 0 0 0 0 0 0 -0
0 0 0 0 0 0 1 1 0 0 -0 -0 -0 0 0 0 0 0 0 0 0 0 0 0 0 0 0 0 0 0 0 0 0 0 0 0 0 0 0 0 0 0 0
0 0 0 0 1 1 1 0 0 0 0 0 0 0 0 -0 0 0 0 0 0 0 0 0 0 0 -0 0 0 0 0 0 0 0 0 0 0 0 0 0 0 0 0
1 1 0 1 1 1 1 1 1 1 0 1 1 1 -0 0 0 0 -0 0 0 0 0 0 0 0 0 0 0 0 0 0 0 0 0 0 0 0 0 0 0 0 0
1 1 1 1 1 1 1 1 0 0 1 1 1 1 0 -0 -0 0 0 0 0 0 0 0 0 0 0 0 0 0 0 0 0 0 0 0 0 0 0 0 0 0 0
2 1 1 1 1 2 2 1 1 0 0 0 0 0 1 0 0 0 0 -0 0 0 0 0 0 0 0 0 0 0 0 0 0 0 0 0 0 0 0 0 0 0 0
3 3 3 2 2 1 1 1 1 1 1 1 0 0 0 0 0 0 0 0 0 0 0 0 0 0 0 0 0 0 0 0 0 0 0 0 0 0 0 0 0 0 0
6 4 3 3 3 2 2 1 1 2 2 1 0 0 0 0 0 0 0 0 0 0 0 0 0 0 0 0 0 0 0 0 0 0 0 0 0 0 -0 0 -0 -0 0
1 4 5 4 2 3 2 2 2 2 2 2 0 0 0 0 0 0 0 0 0 0 0 0 0 0 0 0 0 0 0 0 0 0 0 0 0 0 -0 -0 0 0 0
1 1 4 5 6 4 2 2 2 2 2 1 1 0 0 0 0 0 0 0 0 0 0 0 0 0 0 0 0 0 0 0 0 0 0 0 0 0 0 -0 -0 -0 0
0 1 2 3 5 5 4 3 2 2 1 2 2 0 0 0 0 0 0 0 0 0 0 0 0 0 0 0 0 0 0 0 0 0 0 0 0 0 0 0 -0 -0 -0
0 0 0 0 1 1 2 2 1 1 2 2 3 0 0 0 0 0 0 0 0 0 0 0 0 0 0 0 0 0 0 0 0 0 0 0 0 0 0 0 0 -0 -0
0 0 0 0 0 0 0 1 1 1 1 1 1 0 0 0 0 0 0 0 0 0 0 0 0 0 0 0 0 0 0 0 0 0 0 0 0 0 0 0 0 0 0
0 0 0 0 0 0 0 0 0 1 1 1 0 0 0 0 0 0 0 0 0 0 0 0 0 0 0 0 0 0 0 0 0 0 0 0 0 -0 -0 0 0 0 0
0 0 0 0 0 0 0 0 0 0 0 1 0 0 0 0 0 0 0 0 0 0 0 0 0 0 0 0 0 0 0 0 0 0 0 0 0 0 0 -0 -0 0 -0
Wind_Speed_500mb
66 62 60 58 56 53 53 48 40 38 35 35 34 34 34 36 32 30 25 22 25 22 21 19 14 12 9 9 12 16 16 15 13 11 16 24 22 30 33 31 27 19 25
66 64 59 53 55 58 57 53 46 41 37 31 33 28 26 27 28 22 17 21 21 16 13 14 14 10 12 14 16 15 17 17 12 16 20 21 27 30 34 29 24 19 16
69 66 61 56 53 51 49 49 50 46 40 32 34 27 26 25 20 15 17 17 13 11 11 12 11 10 12 15 13 16 16 17 18 19 21 26 30 36 35 30 24 24 14
67 68 63 58 54 45 43 45 48 48 40 37 31 29 25 22 13 14 15 12 8 10 10 13 11 11 14 17 18 21 20 19 22 22 26 29 33 36 37 36 30 26 17
73 75 65 59 56 54 52 42 39 37 34 33 29 27 21 14 11 10 11 4 5 8 14 12 10 13 17 22 16 20 19 20 22 25 28 30 35 41 43 37 30 29 23
71 71 72 63 53 49 49 51 48 37 34 30 30 21 15 6 17 11 5 4 6 8 11 12 12 16 19 21 23 24 29 25 28 27 29 31 36 39 36 36 33 33 34
68 67 69 69 62 56 54 54 49 38 35 31 28 18 10 17 10 6 4 7 7 10 12 12 18 15 18 20 23 26 29 30 34 33 33 34 34 41 36 37 36 25 28
67 65 65 68 68 60 55 53 46 40 39 34 26 19 17 11 8 4 7 9 9 13 13 13 10 15 18 18 16 20 20 26 30 35 44 42 42 52 35 34 37 31 23
64 65 65 64 63 60 57 52 47 42 40 33 25 17 18 14 10 11 13 10 12 14 13 13 11 15 18 18 14 19 17 21 29 35 41 47 47 58 56 35 39 31 23
56 67 65 62 60 58 53 50 46 44 40 26 23 25 19 17 13 12 15 11 15 15 14 14 13 15 16 16 15 14 16 18 18 24 31 35 34 40 55 55 45 37 33
49 54 63 61 58 51 48 50 46 44 32 30 30 25 23 22 15 19 19 14 14 18 16 17 17 17 16 15 20 15 20 21 26 24 28 31 30 32 36 49 71 52 49
50 55 60 58 52 51 52 49 46 42 36 35 33 31 31 28 21 23 26 19 14 19 22 22 20 20 18 16 19 19 24 26 17 23 25 30 31 28 31 37 54 61 56
52 56 58 54 54 53 52 48 44 42 36 39 39 40 39 36 31 31 30 27 21 21 22 19 22 21 20 16 18 20 26 14 18 21 24 29 29 30 30 33 37 50 66
52 56 56 55 54 51 47 44 36 38 36 37 43 45 43 41 41 39 42 38 30 26 24 25 24 23 23 16 18 19 14 13 17 18 21 24 27 27 31 32 36 33 46
48 54 55 52 51 49 40 35 34 35 36 36 38 42 45 45 41 39 43 41 38 32 31 31 29 25 23 18 15 12 15 15 16 18 19 22 25 27 31 31 33 34 37
31 40 40 37 45 38 43 46 45 37 36 33 30 27 36 35 28 36 37 36 34 31 32 30 28 27 24 22 20 16 13 16 15 15 18 20 22 25 28 31 34 36 38
18 27 32 33 33 34 33 31 34 39 32 37 37 36 28 22 30 38 41 38 36 37 34 31 29 30 28 25 24 22 18 17 20 16 16 18 20 21 26 29 32 36 39
12 28 24 25 23 23 27 30 27 32 34 39 42 46 41 30 36 37 46 47 51 45 35 35 33 32 31 29 26 25 23 19 17 18 17 17 19 19 21 26 29 33 34
16 14 16 15 14 18 23 25 27 30 28 33 42 47 46 44 39 47 51 56 59 51 40 39 37 36 35 35 31 29 27 24 22 21 20 18 20 21 24 27 31 32 33
20 22 25 13 10 9 9 13 21 26 29 30 37 45 51 51 55 63 66 59 54 53 45 42 42 42 40 38 37 34 32 31 27 24 21 22 22 22 22 22 25 27 28
17 13 22 22 16 6 3 9 13 17 24 28 34 39 43 47 52 58 72 73 52 52 48 43 42 48 49 44 40 38 36 33 31 29 27 24 25 24 23 23 24 27 29
5 0 11 12 7 7 14 15 14 15 19 20 25 31 32 54 61 63 69 72 56 52 44 45 45 42 44 48 47 42 39 38 36 34 33 30 29 26 26 24 22 23 27
9 16 5 11 8 15 18 22 24 27 30 27 24 32 31 39 54 62 74 76 64 53 59 52 47 43 42 49 52 50 44 43 42 40 39 37 33 32 29 29 26 24 22
16 18 10 8 8 14 23 19 23 21 23 25 31 31 30 35 46 52 66 78 81 68 56 65 56 50 54 57 54 54 47 46 45 46 43 41 38 39 34 32 31 28 25
14 12 13 6 11 17 20 14 18 18 18 18 21 23 24 26 36 47 64 74 89 88 77 65 70 63 65 58 58 59 57 58 53 50 48 44 43 43 37 35 34 33 30
10 4 10 13 13 14 16 19 17 15 15 15 18 25 31 35 35 40 42 54 78 88 91 75 69 71 64 64 63 59 62 64 60 60 53 47 46 45 40 39 40 36 37
Wind_Direction_500mb
218 223 226 227 232 237 243 247 251 259 266 273 282 286 292 294 302 302 304 309 319 331 336 356 26 53 44 30 13 5 5 16 6 352 359 336 359 348 346 345 337 350 312
214 218 222 225 232 238 243 249 252 256 263 273 278 288 289 298 303 303 306 309 329 340 352 45 70 44 33 25 27 27 39 48 39 18 359 1 354 347 350 348 352 345 346
212 214 218 221 223 227 235 245 251 254 260 266 274 283 288 300 297 300 310 323 339 356 60 76 77 50 41 33 63 57 45 47 37 25 10 360 359 350 357 355 357 356 328
211 214 215 220 223 226 236 240 246 250 254 258 269 275 288 294 286 286 311 328 360 77 110 94 85 50 44 52 51 47 50 39 30 23 14 5 1 2 4 4 4 360 351
209 211 211 213 220 224 228 233 241 244 247 254 262 272 283 280 279 292 307 310 92 86 115 93 83 62 63 72 67 58 53 49 37 23 17 9 4 4 3 5 9 11 354
210 211 213 215 217 220 225 230 235 241 244 249 258 266 258 254 261 299 304 178 113 103 112 97 83 70 69 64 56 53 54 57 47 41 22 13 5 5 3 10 12 11 7
208 210 211 214 216 218 224 233 235 235 240 245 254 254 242 238 257 241 181 160 121 128 113 96 106 82 78 64 60 53 55 53 47 38 30 18 10 7 10 12 11 5 8
203 204 207 210 212 218 223 228 230 230 237 241 246 241 219 219 225 218 180 160 137 138 124 114 100 92 92 86 83 69 65 56 52 44 34 28 28 22 31 8 17 9 28
200 200 202 205 207 212 217 222 225 226 232 235 233 208 228 218 212 189 175 184 162 149 139 127 106 105 96 88 86 75 71 57 36 38 38 29 29 30 35 28 28 31 25
199 197 198 199 203 208 215 219 218 220 225 215 216 215 205 209 202 187 178 201 175 163 154 140 125 116 105 95 94 79 78 68 61 45 36 25 22 23 36 39 34 38 34
195 196 196 197 202 206 209 212 211 212 206 199 204 217 203 198 198 184 182 189 180 161 159 150 146 133 118 105 98 83 75 69 57 43 35 34 37 32 38 39 36 44 51
190 193 194 195 197 201 204 205 204 204 205 202 216 208 200 187 188 184 184 190 179 164 155 158 157 146 138 121 99 77 76 71 61 49 39 38 35 39 32 39 31 41 49
186 188 189 190 193 198 198 199 201 205 204 217 214 211 200 190 188 188 186 187 187 172 167 175 162 153 146 129 111 93 74 81 69 58 46 39 38 40 48 44 39 32 51
183 185 185 185 191 191 195 203 195 206 202 212 213 212 202 199 194 192 192 193 192 186 178 172 169 161 147 152 122 89 105 99 91 76 59 47 46 50 52 57 61 53 53
181 183 184 188 193 196 191 201 204 210 213 215 222 219 209 211 212 205 204 201 194 193 185 176 172 168 163 155 149 136 109 96 92 85 69 55 55 55 56 62 65 58 57
187 190 189 190 189 193 202 206 214 213 220 220 221 219 209 218 209 204 205 208 201 185 185 172 173 172 171 171 163 151 141 120 113 97 81 71 62 73 67 64 66 64 61
182 195 189 185 188 191 195 197 208 215 214 207 201 207 206 206 205 201 202 203 200 190 180 180 183 180 181 180 174 166 155 149 132 120 102 86 73 69 76 74 71 71 71
178 181 174 181 183 186 195 196 201 207 211 207 201 204 200 194 200 202 198 199 195 194 185 183 188 187 186 183 180 173 172 152 145 135 117 105 95 84 81 83 83 86 86
138 152 152 149 155 176 189 196 196 199 202 210 209 207 213 200 192 201 204 212 204 199 192 187 188 190 189 182 182 182 177 164 158 148 137 126 114 105 97 94 99 100 96
129 132 121 104 123 149 171 196 205 207 209 212 220 218 216 200 196 200 202 203 210 203 199 195 191 188 190 187 183 185 179 179 167 156 155 143 134 125 117 111 109 104 97
128 148 148 143 128 129 184 193 209 212 215 214 220 225 227 225 226 216 208 211 207 208 204 198 196 197 187 187 187 186 187 181 175 169 166 158 148 146 136 130 121 115 110
127 173 175 157 159 234 247 226 221 232 229 226 232 233 230 227 224 220 215 214 217 210 206 204 196 204 197 186 190 187 190 187 182 177 170 169 160 156 149 144 138 135 123
65 342 153 159 210 252 272 259 246 244 241 241 235 254 250 247 233 228 220 217 214 210 211 207 202 198 204 201 202 192 192 192 189 183 178 173 171 166 165 159 157 153 149
343 332 32 18 328 291 269 261 272 260 251 249 247 254 258 254 245 245 239 227 217 214 210 218 212 203 206 210 207 202 192 195 192 189 183 178 177 177 171 170 166 170 173
292 338 33 339 296 271 281 266 245 257 267 259 271 264 262 259 258 264 251 233 226 223 218 216 220 215 219 217 215 210 199 201 193 192 187 185 183 183 181 177 176 172 174
329 312 343 329 327 314 278 269 273 267 261 278 276 278 277 270 268 257 261 243 241 226 222 218 219 223 224 221 219 216 212 207 204 200 191 189 189 187 189 186 184 180 179
Wind_Speed_850mb
66 62 60 58 56 53 53 48 40 38 35 35 34 34 34 36 32 30 25 22 25 22 21 19 14 12 9 9 12 16 16 15 13 11 16 24 22 30 33 31 27 19 25
66 64 59 53 55 58 57 53 46 41 37 31 33 28 26 27 28 22 17 21 21 16 13 14 14 10 12 14 16 15 17 17 12 16 20 21 27 30 34 29 24 19 16
69 66 61 56 53 51 49 49 50 46 40 32 34 27 26 25 20 15 17 17 13 11 11 12 11 10 12 15 13 16 16 17 18 19 21 26 30 36 35 30 24 24 14
67 68 63 58 54 45 43 45 48 48 40 37 31 29 25 22 13 14 15 12 8 10 10 13 11 11 14 17 18 21 20 19 22 22 26 29 33 36 37 36 30 26 17
73 75 65 59 56 54 52 42 39 37 34 33 29 27 21 14 11 10 11 4 5 8 14 12 10 13 17 22 16 20 19 20 22 25 28 30 35 41 43 37 30 29 23
71 71 72 63 53 49 49 51 48 37 34 30 30 21 15 6 17 11 5 4 6 8 11 12 12 16 19 21 23 24 29 25 28 27 29 31 36 39 36 36 33 33 34
68 67 69 69 62 56 54 54 49 38 35 31 28 18 10 17 10 6 4 7 7 10 12 12 18 15 18 20 23 26 29 30 34 33 33 34 34 41 36 37 36 25 28
67 65 65 68 68 60 55 53 46 40 39 34 26 19 17 11 8 4 7 9 9 13 13 13 10 15 18 18 16 20 20 26 30 35 44 42 42 52 35 34 37 31 23
64 65 65 64 63 60 57 52 47 42 40 33 25 17 18 14 10 11 13 10 12 14 13 13 11 15 18 18 14 19 17 21 29 35 41 47 47 58 56 35 39 31 23
56 67 65 62 60 58 53 50 46 44 40 26 23 25 19 17 13 12 15 11 15 15 14 14 13 15 16 16 15 14 16 18 18 24 31 35 34 40 55 55 45 37 33
49 54 63 61 58 51 48 50 46 44 32 30 30 25 23 22 15 19 19 14 14 18 16 17 17 17 16 15 20 15 20 21 26 24 28 31 30 32 36 49 71 52 49
50 55 60 58 52 51 52 49 46 42 36 35 33 31 31 28 21 23 26 19 14 19 22 22 20 20 18 16 19 19 24 26 17 23 25 30 31 28 31 37 54 61 56
52 56 58 54 54 53 52 48 44 42 36 39 39 40 39 36 31 31 30 27 21 21 22 19 22 21 20 16 18 20 26 14 18 21 24 29 29 30 30 33 37 50 66
52 56 56 55 54 51 47 44 36 38 36 37 43 45 43 41 41 39 42 38 30 26 24 25 24 23 23 16 18 19 14 13 17 18 21 24 27 27 31 32 36 33 46
48 54 55 52 51 49 40 35 34 35 36 36 38 42 45 45 41 39 43 41 38 32 31 31 29 25 23 18 15 12 15 15 16 18 19 22 25 27 31 31 33 34 37
31 40 40 37 45 38 43 46 45 37 36 33 30 27 36 35 28 36 37 36 34 31 32 30 28 27 24 22 20 16 13 16 15 15 18 20 22 25 28 31 34 36 38
18 27 32 33 33 34 33 31 34 39 32 37 37 36 28 22 30 38 41 38 36 37 34 31 29 30 28 25 24 22 18 17 20 16 16 18 20 21 26 29 32 36 39
12 28 24 25 23 23 27 30 27 32 34 39 42 46 41 30 36 37 46 47 51 45 35 35 33 32 31 29 26 25 23 19 17 18 17 17 19 19 21 26 29 33 34
16 14 16 15 14 18 23 25 27 30 28 33 42 47 46 44 39 47 51 56 59 51 40 39 37 36 35 35 31 29 27 24 22 21 20 18 20 21 24 27 31 32 33
20 22 25 13 10 9 9 13 21 26 29 30 37 45 51 51 55 63 66 59 54 53 45 42 42 42 40 38 37 34 32 31 27 24 21 22 22 22 22 22 25 27 28
17 13 22 22 16 6 3 9 13 17 24 28 34 39 43 47 52 58 72 73 52 52 48 43 42 48 49 44 40 38 36 33 31 29 27 24 25 24 23 23 24 27 29
5 0 11 12 7 7 14 15 14 15 19 20 25 31 32 54 61 63 69 72 56 52 44 45 45 42 44 48 47 42 39 38 36 34 33 30 29 26 26 24 22 23 27
9 16 5 11 8 15 18 22 24 27 30 27 24 32 31 39 54 62 74 76 64 53 59 52 47 43 42 49 52 50 44 43 42 40 39 37 33 32 29 29 26 24 22
16 18 10 8 8 14 23 19 23 21 23 25 31 31 30 35 46 52 66 78 81 68 56 65 56 50 54 57 54 54 47 46 45 46 43 41 38 39 34 32 31 28 25
14 12 13 6 11 17 20 14 18 18 18 18 21 23 24 26 36 47 64 74 89 88 77 65 70 63 65 58 58 59 57 58 53 50 48 44 43 43 37 35 34 33 30
10 4 10 13 13 14 16 19 17 15 15 15 18 25 31 35 35 40 42 54 78 88 91 75 69 71 64 64 63 59 62 64 60 60 53 47 46 45 40 39 40 36 37
Wind_Direction_850mb
218 223 226 227 232 237 243 247 251 259 266 273 282 286 292 294 302 302 304 309 319 331 336 356 26 53 44 30 13 5 5 16 6 352 359 336 359 348 346 345 337 350 312
214 218 222 225 232 238 243 249 252 256 263 273 278 288 289 298 303 303 306 309 329 340 352 45 70 44 33 25 27 27 39 48 39 18 359 1 354 347 350 348 352 345 346
212 214 218 221 223 227 235 245 251 254 260 266 274 283 288 300 297 300 310 323 339 356 60 76 77 50 41 33 63 57 45 47 37 25 10 360 359 350 357 355 357 356 328
211 214 215 220 223 226 236 240 246 250 254 258 269 275 288 294 286 286 311 328 360 77 110 94 85 50 44 52 51 47 50 39 30 23 14 5 1 2 4 4 4 360 351
209 211 211 213 220 224 228 233 241 244 247 254 262 272 283 280 279 292 307 310 92 86 115 93 83 62 63 72 67 58 53 49 37 23 17 9 4 4 3 5 9 11 354
210 211 213 215 217 220 225 230 235 241 244 249 258 266 258 254 261 299 304 178 113 103 112 97 83 70 69 64 56 53 54 57 47 41 22 13 5 5 3 10 12 11 7
208 210 211 214 216 218 224 233 235 235 240 245 254 254 242 238 257 241 181 160 121 128 113 96 106 82 78 64 60 53 55 53 47 38 30 18 10 7 10 12 11 5 8
203 204 207 210 212 218 223 228 230 230 237 241 246 241 219 219 225 218 180 160 137 138 124 114 100 92 92 86 83 69 65 56 52 44 34 28 28 22 31 8 17 9 28
200 200 202 205 207 212 217 222 225 226 232 235 233 208 228 218 212 189 175 184 162 149 139 127 106 105 96 88 86 75 71 57 36 38 38 29 29 30 35 28 28 31 25
199 197 198 199 203 208 215 219 218 220 225 215 216 215 205 209 202 187 178 201 175 163 154 140 125 116 105 95 94 79 78 68 61 45 36 25 22 23 36 39 34 38 34
195 196 196 197 202 206 209 212 211 212 206 199 204 217 203 198 198 184 182 189 180 161 159 150 146 133 118 105 98 83 75 69 57 43 35 34 37 32 38 39 36 44 51
190 193 194 195 197 201 204 205 204 204 205 202 216 208 200 187 188 184 184 190 179 164 155 158 157 146 138 121 99 77 76 71 61 49 39 38 35 39 32 39 31 41 49
186 188 189 190 193 198 198 199 201 205 204 217 214 211 200 190 188 188 186 187 187 172 167 175 162 153 146 129 111 93 74 81 69 58 46 39 38 40 48 44 39 32 51
183 185 185 185 191 191 195 203 195 206 202 212 213 212 202 199 194 192 192 193 192 186 178 172 169 161 147 152 122 89 105 99 91 76 59 47 46 50 52 57 61 53 53
181 183 184 188 193 196 191 201 204 210 213 215 222 219 209 211 212 205 204 201 194 193 185 176 172 168 163 155 149 136 109 96 92 85 69 55 55 55 56 62 65 58 57
187 190 189 190 189 193 202 206 214 213 220 220 221 219 209 218 209 204 205 208 201 185 185 172 173 172 171 171 163 151 141 120 113 97 81 71 62 73 67 64 66 64 61
182 195 189 185 188 191 195 197 208 215 214 207 201 207 206 206 205 201 202 203 200 190 180 180 183 180 181 180 174 166 155 149 132 120 102 86 73 69 76 74 71 71 71
178 181 174 181 183 186 195 196 201 207 211 207 201 204 200 194 200 202 198 199 195 194 185 183 188 187 186 183 180 173 172 152 145 135 117 105 95 84 81 83 83 86 86
138 152 152 149 155 176 189 196 196 199 202 210 209 207 213 200 192 201 204 212 204 199 192 187 188 190 189 182 182 182 177 164 158 148 137 126 114 105 97 94 99 100 96
129 132 121 104 123 149 171 196 205 207 209 212 220 218 216 200 196 200 202 203 210 203 199 195 191 188 190 187 183 185 179 179 167 156 155 143 134 125 117 111 109 104 97
128 148 148 143 128 129 184 193 209 212 215 214 220 225 227 225 226 216 208 211 207 208 204 198 196 197 187 187 187 186 187 181 175 169 166 158 148 146 136 130 121 115 110
127 173 175 157 159 234 247 226 221 232 229 226 232 233 230 227 224 220 215 214 217 210 206 204 196 204 197 186 190 187 190 187 182 177 170 169 160 156 149 144 138 135 123
65 342 153 159 210 252 272 259 246 244 241 241 235 254 250 247 233 228 220 217 214 210 211 207 202 198 204 201 202 192 192 192 189 183 178 173 171 166 165 159 157 153 149
343 332 32 18 328 291 269 261 272 260 251 249 247 254 258 254 245 245 239 227 217 214 210 218 212 203 206 210 207 202 192 195 192 189 183 178 177 177 171 170 166 170 173
292 338 33 339 296 271 281 266 245 257 267 259 271 264 262 259 258 264 251 233 226 223 218 216 220 215 219 217 215 210 199 201 193 192 187 185 183 183 181 177 176 172 174
329 312 343 329 327 314 278 269 273 267 261 278 276 278 277 270 268 257 261 243 241 226 222 218 219 223 224 221 219 216 212 207 204 200 191 189 189 187 189 186 184 180 179